Location: Bailleul
(50.3375°N, 2.8513°E)
Time: 10:11:04
(UTC+00:00)

SJ 16-02 - Pass Details

Date: 16 June 2021
Orbit: 606 x 616 km, 75.0° (Epoch: 03 August)

Event Time Altitude Azimuth Distance (km) Brightness Sun altitude
Rises 23:47:43 0° 340° (NNW) 2,878 6.2 -16.3°
Reaches altitude 10° 23:50:00 10° 344° (NNW) 1,969 5.1 -16.3°
Maximum altitude 23:54:20 58° 64° (ENE) 712 1.8 -16.3°
Enters shadow 23:57:08 21° 138° (SE) 1,382 2.7 -16.3°
